STARLINK-38091, 69997

Orbit data source: Space-Track

STARLINK-38091, 69997 is a payload satellite owned by SpaceX/Seattle (US) in SSO that was launched on Sat, 11 Jul 2026 UTC via an FALCON 9 launch vehicle from the Air Force Western Test Range (AFWTR). Payload-class satellites include a variety of spacecraft equipped with specific instruments for various scientific and technological missions. These include communications satellites like Starlink; space stations such as the ISS; scientific satellites like the Hubble; Earth observation satellites from companies like Planet Labs, Umbra, and HawkEye 360; GPS; miniature CubeSats for education and research; and military/defense satellites.

Loading next visibility...
Identifier
69997, 2026-159Y
Orbit
SSO
Country
Flag of USUS
Related business
Manufacturer
SpaceX/Seattle
Mission
Operational spacecraft
Bus & Motor
STARLINK V2MO, Unknown motor
Mass
575 kg wet, ~530 kg dry
Launch date (UTC)
2026-07-11 (1 month ago)
Launch vehicle
FALCON 9
Launch site
Air Force Western Test Range (AFWTR)
Object type
Payload
Rocket body
Debris
Shape & HBR
BOX + PAN, 17.7 m
Radar Cross Section
Large (>1 m²)

Expand to show TLE details & history
Last TLE update: 1 day ago

TLE from 1 day ago
0 STARLINK-38091
1 69997U 26159Y   26228.07102561  .00160755  00000-0  10590-2 0  9996
2 69997  97.2852  68.5058 0001853  93.0487 267.0991 15.75177123  6891
Epoch: 2026-08-16T01:42Z
TLE epoch observation values (Epoch: 2026-08-16T01:42:16.612Z)
Latitude
0.00004°
Longitude
78.46376°
Altitude
347.359 km
Speed
7.7 km/s
True Right ascension
04h 34m 01s
True Declination
0° 00' 00"
Sunlit
Object was in daylight at epoch
Visualization orbit readout
Latitude
Unknown
Longitude
Unknown
Altitude
Unknown
Speed
Unknown
Apparent Right ascension
Unknown
Apparent Declination
Unknown
Sunlit
N/A
Visualization observer readout
Local Sidereal Time
16:01:32
Azimuth
Unknown
Elevation
Unknown
Doppler factor
Unknown
Orbital elements
Apogee altitude
342.26 km
Perigee altitude
339.77 km
Semi-major axis
6,719.152 km
Eccentricity
0.00019
Inclination
97.2852°
RAAN
68.5058°
Arg. of periapsis
93.0487°
True anomaly
267.07789°
Mean anomaly
267.0991°
Eccentric anomaly
267.0885°
Mean motion
3.94068 °/min
Orbital period
91.35 mins
BSTAR
0.001059
Loading maneuver chart data...
Computing Atmospheric mass density...
Loading historical data...
Loading historical data...
Loading historical data...
Loading historical data...
Loading historical data...
Loading historical data...
Loading historical data...

Documentation

Showing up to 5 results
|